Location: Central Falls
(41.8900°N, 71.3929°W)
Time: 15:01:14
(UTC+00:00)

Vanguard 1 - Pass Details

Date: 08 December 2023
Orbit: 653 x 3826 km, 34.3° (Epoch: 24 February)

Event Time Altitude Azimuth Distance (km) Brightness Sun altitude
Rises 22:12:15 0° 242° (WSW) 5,154 15.9 -10.5°
Reaches altitude 10° 22:15:05 10° 238° (WSW) 4,490 14.9 -11.0°
Maximum altitude 22:28:26 61° 162° (SSE) 3,247 12.6 -13.4°
Enters shadow 22:47:04 16° 91° (E) 6,304 13.6 -16.7°
Drops below altitude 10° 22:50:08 10° 90° (E) 6,899 - -17.2°
Sets 22:55:47 0° 87° (E) 7,968 - -18.2°
